Location: *
(46.1200°N, 11.2700°E)
Time: 15:48:25
(UTC+00:00)

USA 308 - Pass Details

Date: 02 March 2021
Orbit: 571 x 574 km, 54.0° (Epoch: 10 April)

Event Time Altitude Azimuth Distance (km) Brightness Sun altitude
Rises 18:25:08 0° 279° (W) 2,779 8.3 -15.0°
Reaches altitude 10° 18:27:37 10° 291° (WNW) 1,881 6.8 -15.5°
Maximum altitude 18:31:23 29° 353° (N) 1,061 4.4 -16.1°
Enters shadow 18:33:55 17° 43° (NE) 1,490 4.7 -16.5°
